Regional Weather Roundup
Issued by NWS Northern Indiana

Home | Current Version | Previous Version | Graphics & Text | Print | Product List | Glossary On
Versions: 1 2 3 4 5 6 7 8 9 10 11 12 13 14 15 16 17 18 19 20 21 22 23 24 25 26 27 28 29 30 31 32 33 34 35 36 37 38 39 40 41 42 43 44 45 46 47 48 49 50
000
ASUS43 KIWX 020100
RWRIWX

KIWX WEATHER ROUNDUP
NATIONAL WEATHER SERVICE NORTHERN INDIANA
900 PM EDT SUN MAY 01 2016

NOTE: "FAIR" INDICATES FEW OR NO CLOUDS BELOW 12,000 FEET WITH NO
SIGNIFICANT WEATHER AND/OR OBSTRUCTIONS TO VISIBILITY.

* THESE STATIONS ARE NOT UNDER NWS QUALITY CONTROL. THEY ALSO MAY NOT
  REPORT WEATHER SUCH AS PRECIPITATION OR FOG.

INZ001>027-020200-
NORTHERN INDIANA

CITY           SKY/WX    TMP DP  RH WIND       PRES   REMARKS
SOUTH BEND     CLOUDY    51  48  89 E9        29.95S
GOSHEN         CLOUDY    52  49  89 NE10      29.95R
ANGOLA*        CLOUDY    52  50  93 E10       29.95S
FORT WAYNE     CLOUDY    55  52  89 E13       29.93F

$$
INZ028>050-020200-
CENTRAL INDIANA

CITY           SKY/WX    TMP DP  RH WIND       PRES   REMARKS
LAFAYETTE      LGT RAIN  57  55  93 N13       29.87R
KOKOMO*        CLOUDY    61  54  77 NE15G21   29.86F
MUNCIE*        MOCLDY    63  58  83 NE15      29.87S
INDIANAPOLIS   CLOUDY    71  54  54 CALM      29.80F THUNDER

$$
MIZ043>046-050>051-056>058-064>065-071>073-077>080-020200-
SOUTHWEST LOWER MICHIGAN

CITY           SKY/WX    TMP DP  RH WIND       PRES   REMARKS
BATTLE CREEK   CLOUDY    48  46  93 NE14      30.00R FOG
BENTON HARBOR  CLOUDY    51  46  83 NE10      29.96F
COLDWATER*     CLOUDY    51  48  90 NE14G21   29.96S
HILLSDALE*     CLOUDY    50  49  99 NE8       29.96F
HOLLAND        CLOUDY    50  42  74 E13G21    30.03R
GRAND RAPIDS   CLOUDY    49  38  65 NE12      30.03S
KALAMAZOO      CLOUDY    50  45  83 NE10      29.99R FOG
STURGIS*       CLOUDY    50  47  92 NE10      29.96R
THREE RIVERS*  CLOUDY    50  48  90 NE10G16   29.98R

$$
OHZ001>008-015>018-024>025-020200-
NORTHWEST OHIO

CITY           SKY/WX    TMP DP  RH WIND       PRES   REMARKS
DEFIANCE       CLOUDY    54  50  86 NE9       29.95F
FINDLAY        CLOUDY    54  48  80 NE10      29.94F
TOLEDO EXPRESS CLOUDY    51  49  92 NE9       29.97F FOG
TOLEDO METCALF CLOUDY    52  48  86 NE12      29.97F FOG
LIMA           CLOUDY    54  53  97 NE14      29.92F FOG

$$
AND FOR LAKE MICHIGAN COASTAL AND OPEN LAKE BUOY OBSERVATIONS

STATION/POSITION TEMP    WIND        PRES    VSBY  WAVE
                 AIR SEA DIR/SP/G                  HT/PER
                 (F)     (DEG/KT/KT) (MB)    (MI)  (FT/S)
CALUMET HARBOR           360/ 13/ 17 1013.4F
MICHIGAN CITY     46      10/ 17/ 18   N/A
BURNS HARBOR      46      30/ 16/ 19 1014.2F
SAINT JOSEPH      53      20/  6/ 11 1015.2R
SOUTH LAKE BUOY   42 40   30/ 10/ 12 1015.8          2/ 4
4 MI NW BRIDGMAN  49 48                N/A           2/ 5

$$
&&



USA.gov is the U.S. government's official web portal to all federal, state and local government web resources and services.